Tracking 19638 objects as of 20-May-2019
HD Live streaming from Space Station
objects crossing your sky now

EUTE HOT BIRD 13A (HB 6)

Track EUTE HOT BIRD 13A (HB 6) now!
EUTE HOT BIRD 13A (HB 6) is classified as:


NORAD ID: 27499
Int'l Code: 2002-038A
Perigee: 36,040.2 km
Apogee: 36,082.0 km
Inclination: 2.3 °
Period: 1,449.8 minutes
Semi major axis: 42432 km
RCS: 15.0118 m2 (large)
Launch date: August 21, 2002
Source: European Telecommunications Satellite Organization (EUTE)
Launch site: AIR FORCE EASTERN TEST RANGE (AFETR)

Cable programming; direct-to-home broadcasting; 28 Ku-band, 4 Ka-band transponders
aabbcc
Your satellite tracking list
Your tracking list is empty




NASA's NSSDC Master Catalog

Two Line Element Set (TLE):
1 27499U 02038A   19139.49125920  .00000066  00000-0  00000+0 0  9990
2 27499   2.3232  85.7104 0004920 288.7194 253.6777  0.99325602 61194
Source of the keplerian elements: AFSPC